Location: Rowland
(34.5359°N, 79.2929°W)
Time: 19:14:26
(UTC+00:00)

Transit 4A - Pass Details

Date: 10 October 2022
Orbit: 871 x 972 km, 66.8° (Epoch: 01 December)

Event Time Altitude Azimuth Distance (km) Brightness Sun altitude
Rises 11:48:39 0° 321° (NW) 3,468 10.4 5.2°
Reaches altitude 10° 11:51:24 10° 312° (NW) 2,522 9.7 5.8°
Maximum altitude 11:56:24 31° 252° (WSW) 1,497 8.7 6.8°
Drops below altitude 10° 12:01:24 10° 192° (SSW) 2,518 10.2 7.8°
Sets 12:04:09 0° 182° (S) 3,462 11.0 8.3°
